Temp
57 57 57 55 54 53 49 39 33 54 61 39 40 41 46 53 56 60 57 57 55 53 53 52 53 54 61 72 69 61 69 66 59 65 72 77 75 68 62 59 50 55 63 63
57 57 56 55 53 53 43 36 36 52 50 32 35 42 48 51 50 50 51 50 53 51 47 44 54 55 67 58 60 57 59 57 54 54 61 67 65 71 72 55 54 58 51 57
57 57 56 55 54 54 44 37 31 39 43 42 39 38 42 42 52 53 52 49 50 46 43 46 44 48 55 57 58 61 57 53 58 57 61 64 60 70 71 69 63 60 62 60
57 57 56 55 54 54 48 38 33 37 30 35 40 42 42 41 41 50 49 44 46 42 36 40 43 47 47 54 59 54 48 41 52 60 67 72 69 68 71 67 70 64 68 60
57 57 57 56 54 53 45 38 37 37 39 36 35 40 41 38 39 42 42 42 45 44 37 41 40 44 41 42 49 47 46 41 48 53 66 72 69 72 73 73 73 71 65 62
57 57 57 56 54 51 43 46 46 41 37 33 32 34 39 40 44 44 48 48 44 43 46 49 48 50 49 47 44 44 41 41 43 42 60 68 62 70 70 70 72 72 64 68
57 57 57 56 55 52 45 45 44 36 34 38 37 39 42 42 43 41 47 48 41 46 52 52 50 50 49 50 49 52 46 45 43 43 49 50 67 78 79 70 72 73 73 75
57 57 57 57 56 55 47 47 43 39 33 39 39 40 40 41 43 41 45 48 47 47 44 38 34 37 41 49 52 52 55 50 45 41 43 55 64 68 71 66 68 73 71 73
57 57 57 58 57 55 48 46 46 43 36 34 43 37 39 34 34 37 43 50 47 45 38 37 29 30 36 42 53 60 60 59 51 49 45 45 59 72 76 73 57 69 71 70
57 57 58 58 57 55 46 44 46 42 36 41 41 35 34 38 35 32 38 41 40 43 35 35 29 30 42 37 44 47 47 48 46 48 48 52 64 71 74 60 58 68 69 68
57 57 57 57 57 57 48 44 47 44 40 42 48 46 40 41 37 35 37 39 37 34 34 35 33 32 37 37 46 46 44 42 43 48 46 46 64 66 64 64 63 69 69 67
56 57 57 57 57 56 54 43 47 47 42 39 49 48 49 47 47 40 37 39 40 41 35 35 37 36 38 36 37 50 42 47 45 47 47 56 60 59 64 67 64 63 64 66
56 56 57 57 56 56 54 44 45 46 42 42 41 39 48 51 50 53 39 44 48 42 45 37 37 34 42 36 40 46 50 53 49 50 54 54 54 58 63 64 62 64 64 64
56 56 56 56 56 56 55 43 47 46 42 35 38 50 46 54 51 51 51 48 50 45 43 36 34 34 44 41 43 45 49 52 50 50 53 55 56 57 59 62 65 64 63 62
56 56 56 56 56 55 51 46 47 49 42 36 38 45 47 49 52 51 52 49 47 42 39 37 37 43 43 46 45 45 49 48 48 47 52 49 53 58 64 62 62 63 63 61
55 55 55 55 55 54 43 40 49 49 47 40 35 42 45 49 49 48 50 52 49 48 44 40 44 48 45 40 42 48 52 53 53 52 55 53 57 60 62 61 64 65 64 62
55 55 55 54 54 49 43 42 48 52 48 39 36 37 46 51 48 46 45 51 48 45 43 43 43 44 46 44 40 48 52 55 55 57 56 54 55 54 60 60 62 64 66 66
55 54 54 54 53 52 47 51 53 52 44 42 35 36 40 50 45 45 51 49 48 46 44 44 43 45 45 41 47 50 53 54 55 55 56 56 56 57 58 59 58 60 60 62
54 54 54 51 48 45 47 54 53 49 44 38 37 35 34 49 46 47 47 48 42 47 42 43 44 43 41 46 48 49 51 51 51 54 54 55 53 53 55 57 56 56 56 60
54 50 47 43 47 56 54 48 43 42 42 41 34 39 36 43 46 44 44 46 42 38 41 44 40 41 47 48 50 51 52 52 54 51 50 51 51 51 52 53 56 56 57 58
48 43 42 48 56 49 45 40 36 37 35 37 35 38 38 47 41 40 46 41 40 33 39 40 37 39 45 49 50 51 53 53 53 53 53 53 53 54 54 55 56 57 58 57
47 47 49 46 46 44 42 39 37 33 35 42 42 43 43 46 48 43 43 38 39 36 46 39 34 42 47 49 49 50 51 53 53 54 54 55 57 58 57 58 59 59 59 60
48 45 45 44 43 38 39 35 38 40 44 46 46 45 46 47 46 43 43 40 40 47 37 33 38 45 48 49 51 52 53 54 54 55 56 56 58 59 59 60 59 61 60 61
44 43 38 41 40 43 43 44 45 50 48 49 48 47 46 47 45 46 42 42 43 37 34 37 45 48 50 51 53 53 54 56 56 58 60 61 60 60 59 58 59 58 58 60
45 45 34 39 45 48 52 55 56 58 59 52 48 47 49 45 44 44 44 40 34 35 36 43 48 50 51 51 53 55 56 57 57 56 58 59 61 61 60 58 58 60 59 58
51 49 46 49 46 48 52 54 53 57 59 54 50 46 44 42 41 39 37 36 34 40 44 47 49 50 51 52 53 55 56 57 55 58 60 59 61 59 58 61 60 61 62 58
53 47 51 46 46 45 49 53 54 60 57 49 47 42 40 45 41 40 41 39 42 45 47 48 49 50 51 52 54 54 58 58 59 59 60 58 60 60 59 57 60 61 61 60
MSLP
1020.55 1020.06 1019.54 1019.10 1018.72 1018.26 1017.62 1017.77 1016.65 1011.03 1011.08 1011.39 1010.97 1010.56 1009.24 1008.50 1007.33 1006.34 1006.51 1006.12 1005.68 1005.85 1005.48 1004.02 1003.40 1001.96 1001.18 998.86 999.55 999.01 997.53 996.58 995.77 994.77 993.88 993.98 994.67 995.42 996.64 997.71 998.36 998.08 997.06 992.75
1020.33 1019.78 1019.25 1018.88 1018.63 1018.40 1018.62 1018.25 1016.25 1012.27 1012.07 1012.63 1012.38 1011.35 1010.03 1009.24 1008.24 1007.73 1007.11 1007.05 1006.82 1006.93 1006.63 1005.83 1003.77 1002.87 1001.73 1002.61 1001.57 1000.83 999.69 996.76 996.55 994.86 994.13 993.74 993.79 993.85 994.42 995.51 996.46 996.55 996.20 994.31
1019.87 1019.34 1018.93 1018.60 1018.40 1018.24 1018.61 1018.59 1017.30 1014.35 1013.37 1013.74 1013.93 1012.96 1011.70 1010.47 1009.49 1008.55 1008.20 1007.97 1007.68 1007.75 1007.37 1006.90 1006.01 1004.92 1004.00 1004.08 1003.81 1002.66 1000.59 998.84 996.57 994.17 992.83 992.89 992.79 992.67 993.20 993.98 994.65 995.06 993.14 994.40
1019.37 1018.91 1018.60 1018.37 1018.17 1017.99 1018.35 1018.46 1017.71 1016.24 1015.52 1014.75 1014.78 1014.15 1012.91 1011.71 1010.75 1009.41 1008.96 1008.82 1008.79 1008.74 1008.19 1007.41 1006.52 1006.40 1006.17 1005.29 1004.56 1004.22 1003.34 1000.66 997.86 995.23 993.84 991.93 991.11 991.28 991.74 991.84 992.07 992.27 992.46 993.45
1019.01 1018.63 1018.28 1017.99 1017.74 1017.76 1018.19 1018.23 1017.88 1017.02 1016.32 1015.58 1015.03 1014.02 1013.11 1012.55 1012.05 1011.40 1010.05 1009.57 1009.37 1009.16 1009.01 1008.61 1007.79 1007.51 1007.35 1006.77 1005.64 1005.51 1004.19 1002.33 999.23 995.70 993.10 991.50 990.24 990.21 989.86 989.99 990.83 991.17 991.53 992.27
1018.60 1018.12 1017.77 1017.58 1017.42 1017.60 1017.88 1017.68 1017.35 1017.02 1016.35 1015.71 1015.36 1014.38 1013.66 1013.04 1012.59 1011.37 1010.57 1009.86 1009.64 1009.13 1008.68 1008.20 1007.77 1007.30 1007.12 1006.93 1006.96 1005.91 1005.27 1003.16 1000.84 996.80 993.32 991.23 990.22 987.16 988.52 989.12 989.65 990.24 990.68 991.56
1018.23 1017.80 1017.42 1017.20 1017.07 1017.36 1017.47 1017.24 1017.34 1017.23 1016.12 1015.70 1015.11 1014.39 1013.83 1012.92 1012.33 1011.75 1010.65 1009.78 1009.53 1009.37 1008.59 1007.67 1006.78 1005.92 1005.36 1005.18 1005.33 1004.96 1004.03 1003.20 1001.68 998.07 994.60 991.01 987.03 986.96 987.49 988.74 989.12 989.43 990.07 990.35
1017.96 1017.49 1017.13 1016.85 1016.62 1016.67 1017.05 1016.80 1017.13 1016.74 1015.96 1015.45 1014.70 1014.26 1013.65 1013.09 1012.35 1011.65 1010.50 1009.79 1009.72 1009.23 1008.66 1008.15 1007.12 1005.76 1004.10 1002.47 1002.52 1002.74 1002.04 1002.23 1000.99 998.74 995.26 990.80 988.12 986.82 987.00 988.01 988.75 989.09 989.46 989.70
1017.78 1017.35 1016.91 1016.53 1016.16 1015.90 1016.09 1016.16 1016.30 1016.41 1015.95 1014.71 1014.47 1014.38 1013.81 1013.19 1012.35 1011.40 1010.46 1009.66 1009.30 1009.21 1009.13 1008.57 1007.45 1006.28 1004.43 1001.93 1000.17 1000.10 999.28 999.66 999.98 998.55 996.60 992.10 988.80 987.12 986.34 987.91 989.24 988.96 988.97 989.58
1017.72 1017.20 1016.70 1016.25 1015.92 1015.62 1015.73 1015.65 1015.64 1015.97 1015.40 1014.08 1014.22 1013.86 1013.34 1012.86 1012.65 1012.30 1011.12 1010.13 1009.82 1009.44 1009.39 1008.75 1007.69 1006.29 1004.47 1002.69 1000.16 999.60 998.89 998.82 999.28 998.59 997.26 993.25 989.72 987.84 986.84 988.23 989.87 989.53 989.79 989.94
1017.38 1016.82 1016.35 1015.93 1015.61 1015.33 1015.43 1015.24 1014.87 1015.26 1014.51 1013.22 1012.81 1012.64 1012.60 1012.45 1012.36 1012.08 1011.10 1010.73 1010.14 1010.00 1009.61 1008.71 1007.30 1006.25 1004.46 1002.56 1000.25 998.76 999.18 999.24 999.32 998.76 997.66 994.48 991.62 990.08 988.63 988.70 989.91 989.87 990.43 990.75
1017.16 1016.61 1016.10 1015.68 1015.29 1014.99 1014.84 1015.06 1014.33 1014.32 1014.31 1012.67 1011.95 1011.51 1011.13 1010.84 1010.51 1011.24 1010.96 1010.31 1009.88 1009.74 1009.71 1008.81 1007.63 1006.28 1004.36 1002.64 1000.59 999.04 999.62 998.89 998.25 998.58 997.70 996.54 994.43 993.03 990.24 989.19 989.78 990.90 991.03 991.53
1016.75 1016.23 1015.71 1015.27 1014.91 1014.68 1014.54 1014.57 1014.14 1013.90 1013.13 1011.70 1010.88 1009.66 1008.89 1008.88 1009.03 1009.28 1010.38 1009.40 1008.65 1009.00 1009.12 1009.44 1008.36 1006.41 1004.43 1002.60 1000.61 999.47 998.78 998.58 998.39 997.77 998.10 997.43 996.22 994.82 993.48 991.86 991.59 992.00 992.10 992.27
1016.18 1015.62 1015.11 1014.67 1014.36 1014.17 1013.93 1014.08 1013.64 1013.62 1013.10 1012.01 1009.21 1008.08 1007.72 1006.83 1007.06 1007.53 1007.79 1007.46 1007.92 1008.13 1008.61 1008.85 1008.09 1006.39 1003.77 1001.93 1000.80 999.44 998.38 997.99 998.24 998.62 998.57 998.25 997.42 996.35 995.11 994.04 993.23 993.31 993.62 993.31
1015.38 1014.94 1014.37 1013.96 1013.84 1013.58 1013.25 1013.02 1012.45 1012.42 1012.81 1011.60 1009.26 1007.64 1005.98 1005.33 1005.06 1005.50 1006.19 1006.87 1007.01 1007.69 1007.99 1007.46 1006.60 1004.92 1003.41 1001.64 1000.41 998.71 998.68 998.24 998.26 999.11 999.93 999.77 998.68 997.35 995.89 995.24 994.92 994.88 994.49 994.70
1014.50 1014.04 1013.57 1013.01 1012.83 1012.92 1013.30 1012.43 1011.53 1011.42 1012.06 1011.66 1009.77 1007.59 1005.71 1004.91 1004.40 1004.66 1004.96 1005.18 1006.01 1006.59 1006.63 1005.87 1004.82 1003.73 1002.93 1001.11 1000.08 999.51 998.70 998.53 997.96 998.61 999.94 999.80 998.92 997.78 997.16 996.74 996.56 996.18 996.06 996.16
1013.32 1012.82 1012.31 1011.74 1011.81 1012.29 1012.53 1011.37 1010.78 1011.04 1011.55 1011.43 1009.78 1008.05 1005.87 1004.38 1003.92 1003.72 1004.21 1004.13 1004.92 1005.28 1005.62 1005.24 1004.69 1003.34 1002.28 1000.76 999.84 998.61 998.36 997.81 998.48 998.86 999.67 999.54 998.86 999.22 998.29 997.83 997.91 998.11 997.41 997.28
1012.13 1011.41 1010.84 1010.95 1010.82 1011.11 1010.92 1009.76 1009.76 1010.61 1011.28 1010.87 1010.01 1007.93 1006.23 1004.85 1004.61 1004.21 1003.93 1004.09 1004.51 1005.27 1005.55 1005.05 1004.26 1003.21 1002.15 1001.18 1000.24 999.27 998.48 998.63 998.73 999.50 999.47 1000.15 1000.24 999.31 998.81 998.21 998.01 999.48 999.49 998.66
1010.78 1009.85 1009.26 1009.94 1010.58 1010.39 1009.82 1009.43 1009.64 1010.09 1010.80 1010.35 1009.73 1008.56 1006.93 1005.12 1004.97 1004.92 1004.79 1004.43 1004.93 1005.10 1004.87 1004.37 1004.29 1003.03 1002.03 1001.15 1000.69 1000.00 999.34 999.66 999.88 1000.00 1000.51 1000.71 1000.51 1000.24 999.93 998.94 999.84 1001.43 1001.03 1000.02
1009.82 1009.39 1009.72 1010.01 1009.55 1009.20 1009.31 1009.48 1009.63 1009.94 1010.08 1009.76 1009.14 1008.40 1007.30 1006.46 1004.86 1004.84 1005.09 1004.44 1004.73 1004.86 1005.05 1004.62 1004.03 1003.48 1002.64 1001.99 1001.69 1000.81 1000.75 1000.74 1000.74 1000.95 1001.50 1001.40 1001.34 1001.09 1001.16 1001.39 1000.68 1001.71 1001.61 1000.81
1010.78 1010.86 1010.78 1010.18 1009.15 1009.19 1009.27 1009.31 1009.72 1009.84 1009.27 1008.72 1007.88 1007.31 1006.60 1005.68 1005.06 1004.83 1004.73 1004.89 1005.06 1005.06 1005.07 1004.73 1004.68 1004.07 1003.40 1002.65 1002.06 1001.88 1001.82 1001.84 1002.20 1002.27 1002.37 1002.31 1002.14 1001.79 1001.43 1001.03 1001.47 1001.71 1001.73 1001.43
1011.64 1011.97 1011.37 1010.41 1009.54 1008.88 1008.80 1008.68 1008.99 1008.90 1007.51 1006.36 1005.79 1005.43 1005.42 1005.06 1004.68 1004.83 1004.97 1005.13 1005.39 1004.85 1004.86 1005.21 1005.61 1005.39 1004.11 1003.36 1003.06 1002.80 1002.56 1002.62 1002.74 1002.74 1002.65 1002.37 1002.43 1002.31 1002.12 1002.19 1002.32 1002.06 1002.01 1001.78
1011.39 1011.43 1011.09 1010.42 1009.90 1009.46 1008.83 1008.14 1007.63 1006.68 1005.98 1005.09 1004.47 1004.30 1004.43 1004.68 1004.80 1004.90 1004.69 1004.77 1004.93 1004.89 1005.45 1006.01 1005.97 1005.45 1004.94 1004.28 1003.83 1003.86 1003.62 1003.44 1003.37 1003.18 1002.97 1002.76 1002.56 1002.41 1002.12 1001.99 1001.96 1001.72 1001.69 1001.52
1012.06 1011.97 1011.52 1011.23 1010.61 1009.90 1009.15 1007.85 1006.65 1004.97 1004.43 1003.47 1003.46 1003.74 1003.79 1004.24 1004.47 1004.53 1005.01 1005.89 1005.85 1006.27 1006.58 1006.39 1006.07 1005.60 1005.13 1004.75 1004.23 1003.82 1003.93 1003.52 1003.31 1002.77 1002.64 1002.57 1002.36 1002.28 1002.31 1002.45 1002.39 1002.47 1002.34 1002.15
1012.15 1012.18 1012.79 1012.13 1011.45 1010.00 1008.31 1006.64 1005.14 1004.03 1003.15 1002.71 1003.09 1003.53 1003.86 1004.54 1005.20 1006.27 1006.53 1007.03 1007.73 1008.26 1007.87 1007.40 1006.58 1006.46 1005.59 1005.12 1004.61 1004.15 1003.80 1003.76 1003.68 1003.49 1003.46 1003.44 1003.07 1002.86 1003.18 1003.36 1002.98 1002.82 1002.58 1002.55
1011.96 1012.17 1012.58 1011.95 1011.23 1010.03 1008.36 1007.13 1006.14 1004.88 1003.68 1003.13 1003.77 1004.84 1005.58 1006.84 1007.71 1008.15 1008.73 1008.92 1008.96 1008.80 1008.47 1008.09 1007.66 1006.86 1006.25 1005.80 1005.46 1004.77 1004.46 1004.59 1004.58 1004.31 1004.27 1004.31 1004.19 1004.34 1004.15 1003.71 1003.50 1003.27 1003.08 1003.03
1012.71 1013.15 1012.68 1012.32 1011.99 1011.06 1009.85 1008.50 1007.32 1006.00 1004.93 1004.92 1005.58 1007.07 1008.22 1008.76 1009.16 1009.54 1010.04 1010.15 1010.17 1009.46 1008.92 1008.24 1007.86 1007.79 1007.26 1006.97 1006.49 1006.44 1005.84 1005.76 1005.66 1005.59 1005.49 1005.52 1005.19 1004.82 1004.70 1004.82 1004.67 1004.36 1004.09 1004.03
Wind_Speed
19 19 18 17 14 15 6 3 4 4 13 5 2 6 6 8 13 19 14 11 16 13 11 15 11 13 13 17 18 11 13 14 16 26 12 14 20 13 11 9 9 8 17 24
19 19 18 15 14 8 2 3 6 6 5 4 6 9 8 9 8 5 7 6 7 7 4 7 5 10 8 22 16 6 10 6 10 8 9 8 9 15 19 6 4 16 10 5
19 19 17 14 13 8 3 3 5 6 4 1 10 11 7 11 11 13 3 6 3 5 2 2 7 11 11 20 16 22 10 7 14 20 15 6 7 16 16 19 14 12 21 8
21 20 17 14 12 6 3 1 5 4 5 6 10 9 8 12 10 8 4 5 4 3 4 5 4 4 11 13 6 15 8 6 4 15 16 21 14 11 21 23 23 23 19 10
20 19 16 15 12 1 2 2 3 4 6 5 6 5 4 8 12 6 6 3 11 3 3 6 13 11 3 4 8 11 6 7 9 9 13 25 23 21 22 22 23 20 7 7
20 19 16 14 12 6 3 3 5 3 5 4 4 4 8 15 7 10 9 10 8 9 10 8 12 12 13 10 4 6 5 4 9 8 7 21 20 31 15 13 12 14 15 10
19 18 16 14 12 8 3 2 2 3 4 6 6 11 16 14 12 9 12 7 1 4 15 13 10 14 15 19 15 16 9 8 3 8 8 21 14 19 19 9 7 10 12 13
18 17 17 15 10 9 3 2 2 2 4 5 12 11 12 11 12 12 9 2 3 6 6 4 6 6 5 13 19 23 18 11 5 4 4 6 4 6 13 10 12 8 10 8
17 17 16 14 13 10 2 4 4 3 2 5 7 8 7 11 6 5 4 8 4 4 2 4 5 5 5 5 4 19 21 19 10 6 4 7 5 4 12 8 2 3 9 9
17 17 16 14 12 12 2 4 5 2 4 7 7 5 4 3 3 5 7 6 5 1 2 4 4 5 5 6 7 7 2 3 10 11 8 11 5 4 2 10 8 3 4 6
17 16 16 15 13 11 2 4 3 4 4 9 17 14 13 10 5 7 5 6 1 2 5 4 4 4 5 4 6 7 5 5 3 2 7 8 27 19 8 8 3 8 5 2
18 18 18 17 14 13 6 3 2 3 4 7 10 12 16 16 19 7 4 5 3 2 2 1 5 4 4 3 5 9 8 6 7 7 6 11 20 10 8 6 10 4 7 5
19 18 18 16 15 14 10 3 3 3 3 7 7 10 14 14 18 18 8 7 7 5 3 1 3 8 4 5 5 4 7 5 3 5 2 12 20 19 13 11 12 9 9 11
21 21 20 18 15 13 12 2 3 2 3 5 8 6 10 8 9 14 23 19 2 3 2 3 4 5 7 2 4 4 3 6 5 2 5 12 12 17 9 9 13 15 13 14
21 22 21 19 17 14 7 5 5 6 3 4 9 17 9 8 8 14 16 18 16 3 3 3 5 4 6 2 5 2 2 2 6 3 4 3 5 13 9 12 13 11 12 15
22 21 21 19 14 9 3 4 3 5 4 4 5 5 7 8 3 5 8 12 7 6 5 5 4 4 4 3 1 4 4 3 2 8 4 3 3 17 18 16 16 14 13 10
23 21 18 17 12 3 4 5 2 7 2 2 5 4 6 6 4 0 3 6 4 4 3 3 3 4 3 3 3 6 7 4 12 10 6 7 14 7 15 17 15 13 13 11
25 23 20 14 11 7 6 7 16 8 2 3 3 6 4 4 4 4 3 3 3 1 2 3 3 4 2 3 9 9 7 14 14 12 8 2 3 10 15 16 19 18 14 11
28 23 15 3 2 3 3 10 9 3 1 2 3 3 4 6 1 1 2 3 2 1 3 1 2 3 2 5 8 7 13 8 11 12 10 8 12 12 12 17 16 10 10 11
24 3 2 3 3 10 8 2 1 1 2 3 3 2 4 2 1 2 1 0 2 0 2 3 2 3 6 10 8 9 13 12 12 12 9 9 7 8 7 6 6 3 6 7
5 5 2 4 6 1 1 1 3 3 3 4 4 6 4 3 2 2 0 2 3 2 2 2 5 5 7 9 11 9 9 9 9 8 7 6 2 3 7 8 8 5 6 6
3 5 5 4 3 3 2 1 1 3 4 3 4 4 6 2 1 3 3 2 2 4 2 3 3 4 10 11 11 13 11 11 7 4 4 3 1 1 3 2 1 1 1 4
1 2 3 3 5 6 6 7 4 6 3 3 3 0 2 3 2 2 2 2 3 2 4 2 3 4 5 8 5 4 5 7 6 4 4 7 3 8 4 5 4 3 5 5
3 4 10 5 7 5 5 11 9 9 4 5 2 2 1 1 2 3 5 5 5 4 6 8 7 7 3 1 4 3 3 4 3 5 7 10 8 8 8 8 6 6 6 5
4 6 7 5 6 7 11 11 10 12 11 3 2 4 4 5 6 6 6 6 6 5 5 6 8 10 8 6 3 5 9 8 9 6 7 7 8 9 7 5 3 6 7 7
2 2 3 8 6 10 12 12 13 14 13 3 5 6 6 10 5 7 8 4 5 4 4 4 5 8 8 10 9 9 9 10 10 12 15 13 15 12 8 11 9 7 9 9
6 5 3 3 3 5 8 10 9 7 10 12 5 9 9 4 5 5 5 7 6 5 4 4 4 4 2 4 7 8 10 12 14 13 14 13 14 15 15 14 12 11 11 10
Wind_Direction
330 328 329 330 327 331 18 344 315 295 338 18 290 242 196 254 270 287 283 277 285 287 320 287 267 245 224 311 316 311 274 215 228 230 213 208 223 212 183 206 234 238 228 244
324 327 331 331 327 339 338 302 257 306 94 24 350 340 347 31 26 5 346 329 357 27 10 322 304 322 318 16 16 348 325 220 229 295 280 235 204 223 215 127 123 218 208 265
323 324 328 331 327 326 94 332 318 313 15 351 9 349 354 336 324 295 24 291 24 355 0 212 299 336 338 347 339 348 354 247 245 235 223 180 191 216 212 209 215 219 231 215
327 325 323 323 322 322 105 237 260 274 321 340 333 336 290 336 347 5 21 349 8 34 311 312 299 355 324 333 357 354 13 275 271 272 264 210 198 194 214 215 217 208 230 197
321 320 319 322 324 93 181 235 306 330 289 282 322 306 310 349 341 306 312 344 319 304 233 262 299 315 354 227 319 349 329 285 334 281 253 228 216 219 226 218 218 228 192 208
324 324 322 319 318 145 226 221 243 255 297 290 338 269 343 317 333 300 288 295 302 291 305 284 278 281 252 236 260 293 268 313 352 277 283 214 231 217 202 213 211 206 210 195
326 328 326 322 311 189 189 238 84 270 269 276 287 292 297 310 330 297 291 322 350 328 310 300 289 281 245 244 226 226 237 270 246 274 306 207 219 209 219 190 216 210 224 209
335 334 333 331 315 294 194 212 194 211 275 277 281 281 295 312 303 293 290 311 259 286 285 295 314 292 261 224 220 221 214 221 261 255 266 266 187 176 174 167 241 203 195 212
338 338 336 333 327 294 244 216 191 244 301 237 278 308 276 282 285 311 271 303 316 357 260 234 225 225 324 271 187 200 218 204 197 264 311 256 212 176 135 123 235 310 145 149
336 334 339 336 336 339 146 244 179 149 238 259 230 237 257 313 349 269 289 282 333 274 278 240 221 247 253 255 222 195 61 112 197 254 257 274 295 209 126 119 218 85 85 127
335 332 328 323 322 325 30 258 216 196 260 266 260 245 260 267 230 259 291 327 303 293 220 243 214 217 249 254 279 152 116 146 132 279 261 262 344 314 154 173 111 129 108 128
331 329 326 326 324 316 315 256 263 178 242 255 284 256 247 229 230 242 224 253 227 221 279 310 306 288 251 260 246 150 167 208 164 155 242 319 304 305 8 90 113 68 95 69
322 321 319 315 313 312 312 237 252 265 259 272 253 236 251 235 231 223 242 246 214 180 187 19 285 263 300 224 225 191 172 168 156 56 113 346 358 349 356 41 74 77 83 84
314 311 310 309 303 302 305 220 233 193 262 275 276 260 264 239 234 205 207 223 300 125 188 158 240 257 268 286 273 237 176 132 116 347 356 310 341 351 329 21 58 60 53 64
307 310 309 305 304 299 287 246 230 207 203 269 290 304 258 228 247 211 203 219 231 197 224 199 247 239 262 250 242 196 342 153 143 100 285 277 334 354 16 39 45 41 60 56
304 304 305 303 295 298 0 311 221 173 176 278 291 284 283 296 263 193 196 217 206 204 199 235 260 252 278 241 301 267 256 205 247 109 203 201 124 47 36 46 39 47 51 44
308 305 296 287 276 189 185 210 214 148 163 257 280 280 273 295 294 236 137 173 174 168 214 267 277 285 268 305 303 334 332 124 162 151 188 55 39 59 50 48 33 28 50 51
310 305 293 281 257 249 249 251 246 217 220 239 282 276 293 6 357 356 4 131 102 58 254 238 257 290 265 319 321 342 32 81 79 83 83 93 126 59 70 58 45 21 18 23
314 308 297 86 149 200 238 112 102 94 185 271 238 271 295 357 1 261 318 17 54 185 242 353 318 294 310 337 6 356 67 54 95 76 69 62 73 69 50 64 70 14 358 10
319 19 38 327 230 131 139 163 179 143 182 212 235 248 261 302 279 62 351 320 164 340 325 292 344 340 328 20 35 33 61 50 54 78 54 41 49 62 57 58 77 39 326 16
13 357 324 288 179 252 206 1 12 350 258 202 225 222 233 216 243 205 82 85 21 42 344 29 10 4 7 14 33 21 69 75 67 57 49 25 34 60 78 43 40 16 351 1
259 292 293 283 280 280 305 28 312 253 263 231 214 220 187 217 322 28 59 88 202 46 60 56 40 6 355 13 19 20 22 32 34 15 14 341 322 4 35 69 179 99 341 347
326 339 293 29 324 7 336 316 297 298 224 250 263 101 133 147 141 180 213 64 59 13 40 49 217 268 284 292 298 339 332 322 332 332 275 264 258 219 207 107 68 37 352 345
13 345 337 50 317 341 313 311 308 307 242 300 247 126 142 130 111 6 44 29 21 38 28 28 20 13 326 327 318 314 37 17 303 291 74 59 55 55 48 50 45 54 44 32
1 33 8 342 302 301 321 337 342 357 352 356 29 39 50 19 45 18 15 35 38 30 344 20 5 24 25 8 357 54 46 43 31 38 49 44 39 44 47 61 46 46 41 33
43 103 48 326 318 333 351 358 0 348 349 13 37 37 34 39 31 17 23 34 23 2 353 342 343 358 23 17 42 34 35 30 26 47 51 48 48 44 32 30 25 28 41 43
23 344 333 294 298 311 349 360 346 324 17 29 36 40 29 348 23 31 21 18 23 351 6 337 17 88 260 327 59 53 28 50 53 51 48 46 38 37 34 28 24 30 37 42